Location: *
(17.3280°S, 114.7300°W)
Time: 05:46:34
(UTC+00:00)

Cosmos 1328 - Pass Details

Date: 05 August 2020
Orbit: 537 x 547 km, 82.5° (Epoch: 20 September)

Event Time Altitude Azimuth Distance (km) Brightness Sun altitude
Rises 12:21:08 0° 360° (N) 2,696 7.5 -24.4°
Reaches altitude 10° 12:23:17 10° 1° (N) 1,810 6.6 -23.9°
Maximum altitude 12:27:15 74° 86° (E) 574 3.9 -22.9°
Drops below altitude 10° 12:31:17 10° 171° (S) 1,831 6.4 -22.0°
Sets 12:33:27 0° 173° (S) 2,730 7.3 -21.5°
